Lapse_Rate
7.1 6.6 6.5 6.4 6.5 6.5 6.5 6.5 6.5 6.5 6.6 6.5 6.5 6.5 6.4 7.0 7.2 7.2 7.4 7.7 7.8 7.8 8.1 6.8 6.6 7.0 6.7 6.3 5.5 4.8 4.7 4.4 4.6 4.8 5.3 5.6 5.6 6.1 6.1 6.0 4.9 4.8 4.4 3.4
6.6 6.5 6.5 6.6 6.6 6.5 6.5 6.5 6.5 6.4 6.5 6.5 6.5 6.5 6.5 6.6 6.9 7.2 7.4 7.5 7.7 8.0 8.2 7.9 6.7 6.9 7.2 6.0 5.5 4.8 4.3 3.9 3.9 5.3 5.3 5.7 5.9 6.2 6.4 6.8 6.0 5.6 4.7 4.2
6.5 6.5 6.6 6.5 6.5 6.5 6.5 6.5 6.5 6.5 6.5 6.5 6.5 6.5 6.5 6.6 7.0 7.3 7.6 7.9 8.0 7.9 8.1 8.3 8.2 7.6 7.1 6.2 5.1 4.7 3.7 3.7 3.6 4.5 4.9 4.9 5.2 5.5 5.8 6.0 6.3 6.0 4.4 4.2
6.5 6.6 6.5 6.4 6.5 6.5 6.5 6.5 6.5 6.5 6.5 6.5 6.5 6.5 6.5 6.5 6.5 6.5 7.2 7.6 7.8 8.0 8.2 8.3 8.2 8.1 7.7 6.2 5.4 4.5 3.7 3.6 3.4 3.5 4.5 4.6 5.9 6.2 6.5 6.5 4.9 4.9 4.1 4.9
6.5 6.5 6.5 6.5 6.5 6.6 6.5 6.5 6.5 6.5 6.6 6.5 6.6 6.5 6.6 6.6 6.5 6.5 6.9 7.4 7.7 8.0 8.2 8.3 8.4 7.7 7.3 6.5 5.6 4.7 3.4 3.0 3.7 3.0 4.1 4.8 5.1 5.9 6.3 5.6 4.3 4.0 4.2 4.7
6.5 7.0 6.6 6.5 6.5 6.6 6.5 6.5 6.5 6.5 6.5 6.5 6.4 6.5 6.5 6.5 6.5 6.5 6.8 7.4 7.6 7.8 8.1 8.3 8.3 8.0 6.7 6.6 5.7 5.2 3.1 2.3 2.8 2.9 3.3 3.5 4.4 4.7 5.5 5.5 5.1 5.3 5.8 5.7
6.5 6.5 6.6 6.7 6.5 6.5 6.5 6.5 6.5 6.5 6.5 6.5 6.4 6.4 6.5 6.5 6.5 6.5 6.5 7.2 7.6 7.8 7.7 7.9 7.9 7.1 6.2 5.7 5.0 5.2 3.2 2.7 2.5 2.8 3.3 3.3 3.8 4.4 4.9 5.8 5.4 4.7 5.9 6.2
6.4 6.5 6.5 6.6 6.5 6.5 6.5 6.4 6.6 6.5 6.5 6.5 6.4 6.5 6.5 6.5 6.8 7.2 7.3 7.4 7.6 7.6 8.0 7.9 7.4 6.6 5.6 5.0 4.8 4.8 3.9 3.0 2.6 2.7 2.9 3.0 3.5 4.9 5.4 5.6 3.9 5.7 6.5 6.6
6.5 6.4 6.5 6.4 6.5 6.5 6.5 6.6 6.5 6.5 6.5 6.5 6.5 6.5 6.5 6.5 6.6 6.8 7.1 7.3 7.4 7.6 7.8 6.9 6.4 5.9 5.1 5.4 4.9 4.5 4.3 3.5 2.8 3.4 3.1 2.8 3.1 3.5 4.4 4.1 4.0 5.4 5.7 5.8
6.5 6.5 6.5 6.5 6.6 6.6 6.4 6.5 6.5 6.5 6.5 6.5 6.4 6.5 6.6 6.5 6.5 6.6 6.5 6.9 7.3 7.5 7.3 6.8 5.9 6.1 5.5 5.9 6.2 5.1 4.8 3.9 3.3 3.6 3.2 3.3 3.0 3.7 4.2 3.5 4.3 4.7 5.2 5.5
6.5 6.5 6.6 6.5 6.5 6.5 6.5 6.5 6.6 6.6 6.5 6.5 6.5 6.5 6.4 6.5 6.5 6.5 6.5 7.2 7.3 7.4 7.5 7.0 5.3 5.4 5.4 5.6 6.0 5.5 4.5 3.8 2.9 3.1 2.9 3.3 3.0 3.7 3.7 3.7 4.4 4.7 5.2 4.8
6.5 6.5 6.5 6.5 6.5 6.4 6.5 6.5 6.5 6.5 6.4 6.5 6.5 6.4 6.5 6.5 6.5 6.8 6.8 7.2 7.4 6.5 6.4 5.9 5.7 5.5 4.4 4.6 4.5 4.0 4.3 3.6 2.7 2.7 2.6 2.7 3.0 3.7 3.8 4.4 4.7 4.7 4.8 4.8
6.5 6.5 6.5 6.5 6.5 6.5 6.5 6.5 6.5 6.6 6.5 6.5 6.5 6.5 6.5 6.6 6.6 7.0 7.0 7.2 6.9 6.0 5.6 5.4 6.2 5.1 3.7 3.6 3.4 2.1 2.0 2.4 2.6 2.7 2.9 3.1 2.9 3.5 4.0 4.7 4.8 5.0 4.7 5.1
6.2 6.5 6.4 6.5 6.5 6.5 6.6 6.5 6.5 6.5 6.5 6.4 6.5 6.5 6.5 6.5 6.5 6.8 7.1 7.3 6.6 5.2 5.2 5.3 4.4 2.9 1.9 1.6 1.2 1.1 1.6 2.1 2.0 2.6 3.0 3.0 2.6 2.9 4.2 4.7 4.0 5.1 5.0 5.0
6.5 6.5 6.5 6.5 6.5 6.6 6.5 6.5 6.5 6.5 6.5 6.5 6.5 6.5 6.5 6.5 6.5 6.9 7.2 7.4 7.2 6.1 5.8 5.4 4.7 3.7 1.1 0.9 1.1 1.0 1.9 1.6 1.9 1.8 2.3 2.3 2.8 2.8 3.9 3.5 4.0 5.4 5.0 5.1
6.5 6.4 6.5 6.4 6.5 6.5 6.5 6.5 6.5 6.5 6.5 6.5 6.4 6.5 6.5 7.1 7.3 7.1 7.2 7.2 7.2 7.3 5.8 5.5 4.6 3.7 2.6 1.1 0.7 0.9 1.3 1.3 1.3 1.5 2.2 2.6 2.6 2.6 3.3 2.8 4.7 5.2 5.0 4.7
6.5 6.5 6.5 6.4 6.6 6.5 6.5 6.5 6.5 6.6 6.5 6.5 6.5 6.5 6.4 6.5 6.7 7.0 7.3 7.4 7.3 6.3 5.2 5.7 4.8 4.1 3.2 2.8 2.6 1.3 1.3 2.1 2.0 2.5 3.7 3.0 2.8 3.0 1.9 0.9 4.1 5.0 3.9 3.9
6.5 6.6 6.4 6.5 6.5 6.5 6.5 6.5 6.5 6.5 6.5 6.5 6.5 6.5 6.7 6.8 7.3 7.6 7.8 7.6 7.4 6.8 3.8 3.4 5.0 3.0 2.6 2.9 2.9 3.2 2.4 1.7 1.9 2.6 2.8 3.0 2.1 1.3 0.8 2.4 3.3 3.2 2.2 3.0
6.5 6.6 6.5 6.5 6.5 6.4 6.6 6.6 6.4 6.5 6.5 6.5 6.5 6.4 6.8 7.3 7.4 7.2 7.9 7.8 7.6 6.7 4.2 3.1 4.5 4.3 2.1 2.1 1.8 1.6 1.8 2.3 2.7 2.4 1.4 0.9 0.7 0.3 1.0 -0.3 2.4 3.3 2.7 2.7
6.6 6.4 6.5 6.5 6.5 6.5 6.6 6.5 7.0 6.6 6.4 6.6 6.8 6.6 6.7 7.1 6.5 6.5 7.8 7.4 7.4 7.5 5.5 4.6 4.4 3.6 2.7 2.2 2.3 1.9 1.5 1.2 1.8 1.2 0.2 0.9 1.2 1.9 2.3 1.4 1.2 2.4 3.7 4.2
6.5 6.5 6.5 6.5 6.5 6.5 6.5 6.7 7.2 6.5 6.5 7.0 7.1 7.1 7.0 6.4 7.1 7.6 7.9 7.9 8.2 6.3 4.0 4.7 4.5 5.0 5.0 4.2 4.4 4.5 3.8 5.1 4.8 4.5 3.9 4.9 4.4 4.2 3.7 3.7 3.8 3.0 2.1 2.2
6.5 6.5 6.5 6.5 6.5 6.5 6.9 6.8 6.5 6.6 7.2 7.3 7.4 7.4 7.2 7.2 7.3 7.1 7.7 7.7 7.0 7.7 5.1 4.3 3.8 4.0 4.7 5.2 5.4 4.1 3.9 3.8 2.3 1.9 -0.4 0.7 2.8 5.4 3.9 3.0 3.6 2.7 2.7 3.4
6.5 6.5 6.4 6.5 6.5 6.7 7.0 7.0 7.4 7.6 7.3 7.4 6.9 7.4 7.6 7.4 7.2 6.7 6.4 7.9 6.2 5.4 4.8 4.3 4.0 2.1 1.8 2.8 3.8 2.5 1.2 2.3 1.4 0.7 -1.2 0.1 1.0 2.5 4.5 4.3 3.2 3.1 3.7 3.7
6.5 6.8 6.5 6.4 6.5 6.7 7.1 6.7 6.2 6.4 7.3 7.4 8.0 7.1 7.8 7.6 7.7 7.7 7.4 7.6 7.7 5.3 4.2 2.6 1.8 1.1 1.5 2.3 1.7 2.6 2.1 2.4 1.8 0.9 0.8 1.9 1.4 3.7 3.9 3.6 3.5 3.3 4.3 4.4
6.7 6.7 6.5 6.5 6.6 6.9 6.7 6.2 6.4 6.6 7.5 7.8 8.0 7.3 7.8 7.8 7.7 6.8 6.7 6.5 6.2 4.8 3.4 2.3 0.6 0.6 1.8 3.7 4.1 4.8 4.2 3.6 2.7 1.9 1.3 1.6 1.3 3.0 2.5 2.9 3.3 5.3 4.9 5.5
6.9 6.6 6.5 6.4 6.9 6.7 6.9 7.1 6.2 6.8 6.8 6.3 6.6 7.2 7.3 6.5 7.0 6.5 6.4 5.7 5.2 4.7 2.1 0.3 0.4 0.1 1.2 2.7 4.4 4.6 4.0 3.7 4.2 2.2 1.7 1.0 1.7 3.3 2.5 2.2 3.5 -1.9 2.3 -0.2
Wind_Speed
5 6 10 5 2 2 5 8 12 10 2 3 3 5 12 14 16 16 16 16 17 18 19 16 16 16 15 14 14 15 14 13 9 8 7 7 8 7 7 8 10 11 10 9
6 14 6 4 4 3 4 9 12 4 2 3 3 11 12 18 21 21 20 18 18 18 17 17 16 15 17 17 17 14 15 14 12 9 7 5 4 5 6 5 7 8 8 7
14 6 5 3 3 5 6 7 10 9 1 3 8 7 4 11 15 17 18 19 19 20 19 18 18 18 18 17 17 16 16 15 14 13 8 5 3 3 4 3 4 4 3 3
8 5 7 3 5 4 8 6 9 2 2 4 6 6 4 5 11 14 18 18 20 21 20 18 17 17 18 18 16 16 15 15 14 14 11 12 8 8 4 4 1 2 4 3
5 4 9 12 8 5 1 3 5 4 3 2 1 4 4 1 8 14 17 19 16 18 21 21 20 19 19 16 15 16 15 13 13 14 13 11 11 7 5 3 2 4 3 4
6 1 2 3 4 2 9 2 3 2 2 4 3 3 5 3 4 7 15 18 19 18 20 20 20 19 17 16 15 14 14 14 14 14 15 14 12 10 8 5 4 4 4 4
4 10 4 4 7 3 5 3 3 2 1 4 2 4 10 7 7 5 10 12 18 18 18 19 19 17 16 16 16 14 15 14 15 16 15 16 14 11 11 9 5 6 5 5
8 7 10 9 14 7 8 5 4 4 3 5 1 5 6 2 1 8 7 7 10 17 18 18 18 17 16 16 16 17 15 14 15 16 15 12 12 9 8 8 6 7 6 6
5 5 1 5 3 9 6 6 2 2 2 3 3 6 10 4 8 11 8 7 8 12 16 17 16 16 16 17 17 17 16 15 15 17 12 13 12 12 10 10 9 8 8 7
5 4 0 2 4 5 4 10 4 1 3 7 4 5 7 6 3 4 6 8 9 11 13 14 15 17 16 18 17 17 17 16 16 15 13 13 14 13 11 11 11 11 10 9
7 5 3 2 5 8 4 4 2 2 2 4 4 5 4 4 5 9 9 8 9 11 12 12 13 14 15 15 16 17 16 15 14 14 13 12 12 13 12 11 11 11 11 11
7 3 9 13 1 1 0 3 6 4 6 2 3 7 2 2 5 7 10 8 8 8 8 10 12 13 13 15 15 15 14 15 15 13 13 13 11 13 13 12 13 13 12 11
8 5 4 4 3 3 5 5 3 4 1 5 4 5 5 7 8 7 6 8 9 11 10 9 10 12 14 15 14 14 14 14 14 14 14 12 13 14 14 14 14 13 12 11
7 3 4 7 1 1 6 7 6 3 4 6 5 7 13 13 13 11 8 7 7 8 9 11 11 12 12 12 12 12 13 13 13 14 13 14 15 16 15 14 14 14 13 12
2 1 2 2 4 4 5 7 8 6 2 4 2 5 9 11 15 13 14 7 6 9 10 10 10 10 11 12 11 11 11 12 14 14 14 15 14 15 15 13 13 13 14 13
1 2 2 2 4 2 5 5 7 3 2 4 5 10 4 13 10 10 10 10 8 8 9 10 10 11 10 11 13 12 13 14 14 15 14 13 14 14 14 13 13 11 12 12
2 3 1 2 3 4 4 7 6 4 3 3 4 4 13 13 10 6 10 9 9 11 10 9 10 12 11 10 10 13 12 11 12 12 11 13 14 13 11 9 11 12 12 11
1 1 2 3 4 5 3 1 2 4 5 9 6 8 9 11 10 9 6 8 9 10 11 11 7 8 11 10 10 9 11 13 14 13 12 13 14 15 13 11 8 7 8 11
2 2 2 4 4 3 3 6 6 8 6 14 8 5 6 6 5 7 10 11 10 12 11 8 6 4 8 11 11 12 12 13 13 13 14 15 17 17 18 18 13 10 8 7
5 2 3 2 9 10 3 7 5 3 6 12 9 3 4 4 4 5 13 16 15 15 10 5 1 4 9 11 12 13 14 14 14 14 15 18 19 18 14 13 15 12 11 10
0 1 4 4 4 4 2 4 7 6 4 4 1 2 4 3 4 10 14 17 15 12 12 8 6 2 3 7 9 8 9 9 10 11 15 20 2 5 5 11 12 11 9 8
4 4 3 1 3 5 4 7 3 3 6 5 5 6 7 9 11 12 14 15 15 13 9 8 6 7 5 6 8 10 10 14 13 13 13 13 6 7 5 13 12 11 10 9
3 2 1 4 2 1 2 4 6 5 6 3 4 6 7 8 10 12 13 15 11 7 5 5 7 7 5 7 10 11 12 15 11 5 12 14 15 12 10 11 12 8 9 8
3 2 2 3 2 5 5 7 9 9 7 8 9 11 9 7 9 11 12 13 8 4 4 4 7 7 3 6 9 12 15 15 11 8 10 12 14 13 12 9 9 8 9 8
2 4 2 4 6 6 4 5 5 10 12 11 8 8 10 7 6 4 7 8 6 4 4 4 8 8 5 3 6 11 13 11 10 9 8 9 9 10 10 7 7 8 8 9
5 4 3 4 2 5 10 3 7 12 13 11 11 8 7 9 7 6 6 6 4 2 2 3 1 8 9 9 9 8 5 5 8 10 8 8 9 8 9 8 6 11 6 10
Wind_Direction
183 212 223 235 212 298 279 280 293 301 153 189 240 235 189 195 202 201 205 197 203 211 217 215 220 218 212 212 208 203 202 208 205 200 209 232 237 240 247 250 254 256 256 254
203 233 199 144 155 259 256 291 313 324 17 261 287 277 226 197 209 205 198 205 209 212 217 223 220 215 214 213 214 208 210 201 204 209 213 219 222 240 248 262 270 263 271 259
224 241 161 209 186 271 283 293 320 312 33 99 320 280 195 217 225 218 217 209 209 214 216 219 219 214 217 218 212 211 206 203 202 206 209 205 211 238 245 241 246 247 231 201
247 199 205 193 259 228 290 336 311 337 270 328 357 305 275 225 219 222 215 213 213 213 214 217 222 219 215 218 215 214 209 204 201 196 204 209 215 225 239 240 108 174 167 142
209 199 196 222 246 192 347 34 68 86 100 282 139 273 271 284 245 222 213 215 217 217 216 214 213 218 215 214 211 210 206 201 198 195 204 208 220 224 219 176 154 146 146 132
247 318 239 198 171 237 169 125 71 83 351 290 69 283 300 222 239 217 215 217 215 212 215 216 216 216 219 212 213 206 203 201 193 193 204 208 212 208 214 203 208 176 161 147
248 244 219 184 233 128 182 196 293 261 196 271 113 243 265 258 251 218 186 214 212 208 204 211 213 211 213 205 209 206 203 203 198 198 203 212 211 207 215 207 189 176 173 172
212 233 196 184 215 217 197 228 232 267 266 309 317 249 310 252 284 228 235 239 206 206 206 207 208 211 210 206 204 203 200 204 198 203 205 204 206 207 212 200 176 188 183 173
180 247 221 210 156 197 158 207 346 214 122 267 269 272 280 251 251 242 239 205 193 198 200 203 205 207 209 209 205 202 200 206 200 205 194 197 199 197 194 179 175 181 173 163
197 265 57 87 170 69 233 139 176 198 261 272 237 275 272 298 221 207 221 211 191 184 193 200 206 208 209 211 211 207 208 205 206 202 197 201 200 195 186 171 177 177 167 164
173 230 191 236 200 180 154 182 75 152 248 278 296 274 224 282 248 209 216 206 202 204 205 204 205 209 211 210 209 210 209 205 199 198 195 197 197 189 180 175 176 173 164 162
195 205 239 248 163 343 225 223 199 220 189 238 305 274 167 44 353 314 282 260 228 222 231 229 217 207 204 209 209 207 202 201 199 189 190 194 191 183 179 172 173 169 166 163
173 211 225 219 171 147 207 182 176 111 140 187 237 276 113 76 54 21 322 306 268 272 261 237 219 211 212 207 208 205 198 199 190 185 187 187 185 183 177 173 170 168 158 157
151 157 233 248 259 137 169 171 176 206 198 159 234 294 299 349 359 355 328 300 280 246 242 262 248 235 215 201 192 201 201 194 188 187 189 186 185 182 175 169 165 163 159 157
243 214 218 302 255 193 142 162 173 207 162 234 51 263 328 343 332 323 307 275 246 227 233 237 256 260 210 199 195 197 202 191 188 184 188 190 180 172 162 156 161 164 162 159
179 151 163 55 8 291 139 130 141 151 161 264 293 286 60 332 319 319 320 306 281 196 216 224 225 233 241 208 195 188 194 196 184 187 190 177 166 159 150 145 157 166 160 156
322 134 141 150 4 329 190 189 179 147 196 191 253 306 332 332 334 344 335 334 308 289 278 221 218 214 207 215 219 194 184 174 181 184 173 167 154 136 126 131 160 175 158 150
207 90 102 122 132 228 57 359 285 257 207 210 246 274 307 306 297 288 320 316 319 313 296 282 241 204 191 189 195 183 167 171 176 170 157 148 135 124 124 135 147 173 152 149
299 170 169 217 187 332 238 214 205 203 229 215 218 237 287 291 273 68 20 359 343 319 301 285 279 233 179 174 173 169 170 171 167 155 147 146 142 143 152 158 164 161 148 138
89 90 256 166 226 227 217 163 153 163 264 197 208 287 350 299 187 46 350 347 349 354 347 340 41 175 172 169 173 171 166 165 168 164 162 158 160 164 173 164 152 147 157 151
182 46 244 207 262 286 358 116 155 203 346 13 208 355 17 50 1 320 334 341 342 356 12 33 60 61 181 161 155 162 152 145 113 103 72 7 45 125 142 156 145 130 138 138
228 201 204 172 229 244 119 121 228 26 351 9 356 347 342 334 326 321 329 332 327 337 20 29 47 60 88 138 146 133 122 115 123 127 116 114 199 285 143 136 138 136 145 152
237 273 328 228 24 343 288 292 295 298 282 291 296 299 314 321 317 318 329 341 310 328 359 52 69 77 95 127 139 126 143 135 147 156 131 173 164 175 175 151 143 140 155 161
209 186 240 282 148 232 273 294 286 315 298 281 264 273 284 294 306 326 347 353 345 332 87 74 93 92 44 129 141 146 163 165 144 145 158 170 142 151 157 147 148 157 172 173
51 162 233 256 272 286 190 229 297 311 319 315 313 262 253 256 281 297 334 345 343 341 275 161 134 118 138 190 163 179 175 154 141 165 155 135 124 138 131 132 147 169 181 179
190 174 223 283 298 280 289 286 310 313 319 317 329 309 255 236 243 275 294 313 303 315 348 338 193 136 171 187 174 183 192 201 143 136 136 137 135 147 137 133 123 41 125 139